Вернуться в каталог

STARLINK-31281

АктивенСвязьVLEO
NORAD 59077·PAYLOAD·🇺🇸 United States

Запущен Feb 29, 2024 с Cape Canaveral Space Force Station

Loading…

Ближайшие Пролёты (ближайшие 24 часа)

TLE

СвежийSource: CelesTrak SupGP

Эпоха: Sep 15, 2026, 01:57 UTC

1 59077C 24041D   26258.08173611  .00039038  00000+0  14138-2 0  2588
2 59077  43.0033 320.8113 0001558 264.5302 331.3039 15.27562399    14

Отслеживайте STARLINK-31281 в реальном времени с AllMySat

Download on the App Store